Location: Banff
(51.1667°N, 115.5667°W)
Time: 22:15:55
(UTC+00:00)

Transit 2A Rocket - Visible Passes

Search period start: 25 November 2020 00:00
Search period end: 05 December 2020 00:00
Orbit: 588 x 914 km, 66.7° (Epoch: 25 November)

Date Brightness Start Highest point End Pass type
(mag) Time Alt. Az. Time Alt. Az. Time Alt. Az.
25 Nov 6.8 11:24:30 27° NNE 11:24:30 27° NNE 11:26:50 10° NE visible
25 Nov 6.3 13:04:25 25° NW 13:04:41 26° NNW 13:09:09 10° NNE visible
26 Nov 7.7 10:43:19 15° NE 10:43:19 15° NE 10:44:13 10° NE visible
26 Nov 6.4 12:23:14 28° N 12:23:14 28° N 12:26:37 10° NNE visible
26 Nov 6.8 14:03:08 12° NW 14:05:57 16° NNW 14:09:13 10° NNE visible
27 Nov 6.9 11:42:00 23° NNE 11:42:00 23° NNE 11:44:06 10° NNE visible
27 Nov 6.7 13:21:54 18° NNW 13:22:48 18° NNW 13:26:29 10° NNE visible
28 Nov 7.6 11:00:44 15° NNE 11:00:44 15° NNE 11:01:34 10° NE visible
28 Nov 6.6 12:40:38 21° NNW 12:40:38 21° NNW 12:43:52 10° NNE visible
28 Nov 6.9 14:21:16 10° NW 14:24:18 15° N 14:27:10 10° NE visible
29 Nov 7.0 11:59:19 19° N 11:59:19 19° N 12:01:19 10° NNE visible
29 Nov 6.9 13:39:14 13° NNW 13:41:06 15° N 13:44:07 10° NNE visible
30 Nov 7.5 11:17:59 14° NNE 11:17:59 14° NNE 11:18:48 10° NNE visible
30 Nov 6.8 12:57:54 17° NNW 12:57:56 17° NNW 13:01:16 10° NNE visible
30 Nov 6.9 14:39:23 10° NNW 14:42:37 16° NNE 14:45:42 10° NE visible
01 Dec 7.0 12:16:32 17° N 12:16:32 17° N 12:18:36 10° NNE visible
01 Dec 7.0 13:56:29 10° NNW 13:59:28 15° N 14:02:18 10° NE visible
02 Dec 7.5 11:35:10 14° NNE 11:35:10 14° NNE 11:36:01 10° NNE visible
02 Dec 7.0 13:15:04 14° NNW 13:16:15 15° N 13:19:06 10° NNE visible
03 Dec 7.0 12:33:41 15° N 12:33:41 15° N 12:36:08 10° NNE visible
03 Dec 6.8 14:14:20 10° NNW 14:17:45 17° NNE 14:20:59 10° ENE visible
04 Dec 7.4 11:52:17 13° NNE 11:52:17 13° NNE 11:53:22 10° NNE visible
04 Dec 7.0 13:32:11 12° NNW 13:34:36 15° N 13:37:31 10° NE visible
